Stations météo

réclame
Mon MeteoGroup
Chivenor, Grande-Bretagne (3707): Température de l'air & dewpoint: 11.10.2018 04:00:00 - 17.10.2018 04:00:00 (BST)Chivenor, Grande-Bretagne (3707): Température de l'air -20cm & Température de l'air -100cm: 11.10.2018 04:00:00 - 17.10.2018 04:00:00 (BST)Chivenor, Grande-Bretagne (3707): Vitesse du vent & gusts: 11.10.2018 04:00:00 - 17.10.2018 04:00:00 (BST)Chivenor, Grande-Bretagne (3707): Direction du vent: 11.10.2018 04:00:00 - 17.10.2018 04:00:00 (BST)Chivenor, Grande-Bretagne (3707): reduced air pressure: 11.10.2018 04:00:00 - 17.10.2018 04:00:00 (BST)Chivenor, Grande-Bretagne (3707): visibility: 11.10.2018 04:00:00 - 17.10.2018 04:00:00 (BST)Chivenor, Grande-Bretagne (3707): Quantités de précipitations: 11.10.2018 04:00:00 - 17.10.2018 04:00:00 (BST)
Date & Time tt [°C] td [°C] tt -20cm [°C] tt -100cm [°C] ff [km/h] ff [knt] fx [km/h] fx [knt] dd ppp [hPa] vv [km] rr [mm]
17.10.2018 04:00:00 13,7 9,9 - - 9 5 - - WSW 1016,2 50 0,0
17.10.2018 03:00:00 13,3 12,6 - - 8 4 - - W 1016,4 18 0,2
17.10.2018 02:00:00 13,5 13,0 - - 16 9 - - SW 1016,5 3,4 0,2
17.10.2018 01:00:00 13,4 12,7 - - 15 8 - - SSW 1016,3 7 0,0
17.10.2018 00:00:00 13,3 12,2 - - 13 7 - - S 1016,4 40 0,0
16.10.2018 23:00:00 13,2 11,9 - - 9 5 - - S 1016,3 28 0,0
16.10.2018 22:00:00 12,7 11,4 - - 5 3 - - E 1016,5 4,9 0,0
16.10.2018 21:00:00 12,8 11,2 - - 5 3 - - S 1016,4 50 0,0
16.10.2018 20:00:00 11,9 10,8 - - 8 4 - - ESE 1016,4 50 0,0
16.10.2018 19:00:00 11,1 9,3 - - 9 5 - - SSE 1016,1 45 0,0
16.10.2018 18:00:00 13,9 10,4 - - 5 3 - - S 1015,7 50 0,0
16.10.2018 17:00:00 14,9 10,3 - - 16 9 - - WSW 1015,8 40 0,0
16.10.2018 16:00:00 15,0 11,5 - - 16 9 - - SW 1015,7 45 0,0
16.10.2018 15:00:00 13,5 11,9 - - 16 9 - - SW 1015,9 6 0,0
16.10.2018 14:00:00 13,8 12,2 - - 16 9 - - SW 1015,7 16 0,0
16.10.2018 13:00:00 14,0 11,6 - - 22 12 - - WSW 1015,5 50 0,0
16.10.2018 12:00:00 14,9 12,3 - - 15 8 - - SSW 1015,4 35 0,0
16.10.2018 11:00:00 13,9 13,5 - - 9 5 - - SW 1015,2 13 0,2
16.10.2018 10:00:00 13,6 13,2 14,4 15,2 9 5 - - S 1015,3 2,1 0,0
16.10.2018 09:00:00 13,4 13,1 - - 4 2 - - SSW 1014,8 4,9 0,2
16.10.2018 08:00:00 13,2 12,9 - - 8 4 - - S 1014,3 4,8 0,0
16.10.2018 07:00:00 12,7 12,4 - - 13 7 - - SE 1013,6 3,8 0,0
16.10.2018 06:00:00 13,0 12,6 - - 13 7 - - ESE 1013,6 1,5 0,6
16.10.2018 05:00:00 12,9 12,4 - - 9 5 - - ESE 1013,5 4,5 0,0
16.10.2018 04:00:00 12,8 12,2 - - 15 8 - - ESE 1013,5 3,5 0,0
16.10.2018 03:00:00 12,7 11,9 - - 9 5 - - ESE 1013,8 4,5 0,0
16.10.2018 02:00:00 12,5 11,4 - - 2 1 - - N 1013,8 9 0,0
16.10.2018 01:00:00 12,3 11,3 - - 8 4 - - ESE 1013,7 7 0,0
16.10.2018 00:00:00 12,2 11,1 - - 13 7 - - SE 1014,0 8 0,0
15.10.2018 23:00:00 12,0 10,7 - - 4 2 - - WSW 1013,9 40 0,0
15.10.2018 22:00:00 12,3 10,6 - - 4 2 - - NE 1013,6 45 0,0
15.10.2018 21:00:00 12,2 10,7 - - 4 2 - - SSE 1013,7 50 0,0
15.10.2018 20:00:00 11,9 10,3 - - 9 5 - - SE 1012,8 50 0,0
15.10.2018 19:00:00 12,4 10,4 - - 8 4 - - SE 1012,7 50 0,0
15.10.2018 18:00:00 12,8 10,4 - - 13 7 - - E 1012,3 50 0,0
15.10.2018 17:00:00 13,1 10,1 - - 18 10 - - ENE 1012,1 50 0,0
15.10.2018 16:00:00 13,2 10,3 - - 24 13 - - ENE 1011,9 50 0,0
15.10.2018 15:00:00 13,1 9,9 - - 22 12 - - ENE 1011,7 50 0,0
15.10.2018 14:00:00 12,9 9,7 - - 24 13 - - ENE 1011,7 40 0,0
15.10.2018 13:00:00 13,0 9,8 - - 24 13 - - E 1011,7 50 0,0
15.10.2018 12:00:00 12,8 9,8 - - 21 11 - - ENE 1011,2 50 0,0
15.10.2018 11:00:00 12,1 9,6 - - 18 10 - - ENE 1011,4 50 0,0
15.10.2018 10:00:00 11,9 9,4 14,4 15,2 18 10 - - NE 1011,1 50 0,0
15.10.2018 09:00:00 11,3 9,4 - - 11 6 - - NE 1010,8 50 0,0
15.10.2018 08:00:00 10,9 9,0 - - 9 5 - - ENE 1010,1 45 0,0
15.10.2018 07:00:00 11,0 8,8 - - 13 7 - - ENE 1009,8 50 0,0
15.10.2018 06:00:00 10,9 8,5 - - 11 6 - - ENE 1009,4 50 0,0
15.10.2018 05:00:00 11,0 8,1 - - 9 5 - - ENE 1009,5 50 0,0
15.10.2018 04:00:00 10,8 7,5 - - 13 7 - - NE 1009,3 50 0,0
15.10.2018 03:00:00 10,8 7,3 - - 9 5 - - NE 1009,8 50 0,0
15.10.2018 02:00:00 10,4 6,7 - - 9 5 - - NE 1009,7 50 0,0
15.10.2018 01:00:00 10,3 6,5 - - 9 5 - - NE 1009,8 50 0,0
15.10.2018 00:00:00 10,6 7,0 - - 13 7 - - ENE 1010,0 50 0,0
14.10.2018 23:00:00 10,4 6,6 - - 5 3 - - ENE 1010,0 50 0,0
14.10.2018 22:00:00 11,4 6,8 - - 13 7 - - ENE 1009,8 50 0,0
14.10.2018 21:00:00 11,5 7,6 - - 11 6 - - ENE 1009,5 50 0,0
14.10.2018 20:00:00 11,1 7,7 - - 8 4 - - ENE 1009,6 50 0,0
14.10.2018 19:00:00 11,9 7,4 - - 8 4 - - ENE 1009,3 50 0,0
14.10.2018 18:00:00 13,3 7,9 - - 8 4 - - ENE 1009,0 45 0,0
14.10.2018 17:00:00 13,9 7,7 - - 13 7 - - NNE 1008,6 50 0,0
14.10.2018 16:00:00 14,1 7,8 - - 11 6 - - NNE 1008,6 50 0,0
14.10.2018 15:00:00 13,6 7,7 - - 16 9 - - NE 1008,3 35 0,0
14.10.2018 14:00:00 12,8 7,3 - - 21 11 - - NE 1008,1 50 0,0
14.10.2018 13:00:00 13,1 7,9 - - 13 7 - - NE 1008,2 45 0,0
14.10.2018 12:00:00 12,5 9,7 - - 16 9 - - E 1008,0 50 0,2
14.10.2018 11:00:00 11,8 9,6 - - 13 7 - - E 1008,1 45 0,0
14.10.2018 10:00:00 11,4 9,6 15,0 15,2 11 6 - - NNE 1008,2 40 0,8
14.10.2018 09:00:00 11,4 9,9 - - 11 6 - - N 1008,4 14 1,6
14.10.2018 08:00:00 11,5 9,7 - - 16 9 - - N 1007,1 30 0,6
14.10.2018 07:00:00 11,6 10,0 - - 15 8 - - N 1006,5 23 0,6
14.10.2018 06:00:00 11,8 10,2 - - 9 5 - - N 1006,2 18 2,0
14.10.2018 05:00:00 12,1 9,8 - - 8 4 - - N 1006,7 9 1,2
14.10.2018 04:00:00 12,8 9,9 - - 9 5 - - NNW 1007,2 40 0,0
14.10.2018 03:00:00 12,5 9,9 - - 8 4 - - NW 1007,4 50 0,0
14.10.2018 02:00:00 12,8 10,7 - - 15 8 - - WNW 1007,1 40 0,0
14.10.2018 01:00:00 12,9 11,5 - - 16 9 - - W 1006,8 26 0,2
14.10.2018 00:00:00 13,7 11,9 - - 28 15 - - WSW 1005,9 13 0,0
13.10.2018 23:00:00 14,0 12,1 - - 24 13 52 28 SW 1005,5 30 0,2
13.10.2018 22:00:00 15,5 12,5 - - 24 13 - - SSW 1005,2 30 0,0
13.10.2018 21:00:00 16,1 13,0 - - 24 13 - - SSW 1004,7 28 0,0
13.10.2018 20:00:00 16,6 13,6 - - 26 14 - - SSW 1004,7 19 0,0
13.10.2018 19:00:00 17,2 14,5 - - 28 15 52 28 SSW 1003,9 16 0,0
13.10.2018 18:00:00 17,5 15,1 - - 29 16 67 36 S 1003,0 18 0,2
13.10.2018 17:00:00 18,4 15,3 - - 39 21 61 33 S 1001,9 13 0,0
13.10.2018 16:00:00 19,3 15,5 - - 41 22 68 37 S 1002,0 15 0,0
13.10.2018 15:00:00 19,4 16,1 - - 44 24 70 38 S 1001,8 24 0,0
13.10.2018 14:00:00 19,4 15,9 - - 41 22 98 53 S 1002,2 14 0,0
13.10.2018 13:00:00 19,8 16,1 - - 44 24 85 46 S 1002,6 16 0,0
13.10.2018 12:00:00 19,9 15,7 - - 52 28 80 43 S 1003,6 25 0,0
13.10.2018 11:00:00 19,5 16,2 - - 48 26 72 39 S 1003,7 26 0,0
13.10.2018 10:00:00 18,7 16,4 15,4 15,2 46 25 83 45 S 1004,0 23 0,0
13.10.2018 09:00:00 19,2 16,8 - - 50 27 76 41 S 1003,8 29 0,0
13.10.2018 08:00:00 18,3 16,9 - - 37 20 61 33 S 1003,4 8 1,4
13.10.2018 07:00:00 18,3 16,7 - - 37 20 55 30 S 1003,2 13 0,8
13.10.2018 06:00:00 18,0 16,6 - - 34 18 54 29 S 1003,9 17 0,8
13.10.2018 05:00:00 18,1 16,9 - - 35 19 55 30 S 1004,1 8 0,6
13.10.2018 04:00:00 17,9 16,8 - - 31 17 50 27 S 1004,6 16 0,2
13.10.2018 03:00:00 18,0 16,9 - - 39 21 57 31 S 1005,1 10 3,0
13.10.2018 02:00:00 17,8 16,7 - - 34 18 50 27 S 1005,1 4,1 1,4
13.10.2018 01:00:00 18,0 16,8 - - 35 19 54 29 S 1005,3 10 0,2
13.10.2018 00:00:00 18,0 16,8 - - 35 19 55 30 S 1005,6 8 0,4
12.10.2018 23:00:00 18,0 16,4 - - 37 20 55 30 S 1005,6 14 0,0
12.10.2018 22:00:00 18,2 16,7 - - 29 16 54 29 S 1005,6 11 0,0
12.10.2018 21:00:00 18,4 16,4 - - 31 17 67 36 S 1005,5 16 0,0
12.10.2018 20:00:00 18,0 16,2 - - 35 19 59 32 S 1005,0 12 0,0
12.10.2018 19:00:00 17,8 15,9 - - 35 19 70 38 S 1004,4 8 0,0
12.10.2018 18:00:00 17,7 15,4 - - 41 22 68 37 S 1003,9 13 0,0
12.10.2018 17:00:00 17,8 15,5 - - 48 26 76 41 S 1003,6 14 0,0
12.10.2018 16:00:00 18,1 15,5 - - 46 25 81 44 S 1003,1 15 0,0
12.10.2018 15:00:00 18,3 15,3 - - 54 29 85 46 S 1002,2 11 0,0
12.10.2018 14:00:00 18,0 15,4 - - 50 27 93 50 S 1001,8 11 0,0
12.10.2018 13:00:00 17,7 15,2 - - 52 28 87 47 S 1001,3 14 0,2
12.10.2018 12:00:00 17,0 15,3 - - 52 28 80 43 S 1001,2 11 0,6
12.10.2018 11:00:00 16,1 14,8 - - 48 26 72 39 S 1001,3 2,8 3,4
12.10.2018 10:00:00 16,0 14,7 14,5 15,2 41 22 63 34 S 1001,9 5 3,8
12.10.2018 09:00:00 15,8 14,7 - - 31 17 63 34 S 1001,8 5 2,0
12.10.2018 08:00:00 15,6 14,5 - - 39 21 68 37 S 1001,4 5 0,6
12.10.2018 07:00:00 16,2 14,1 - - 42 23 72 39 S 1001,0 30 0,4
12.10.2018 06:00:00 15,4 13,8 - - 42 23 80 43 S 1000,7 14 0,8
12.10.2018 05:00:00 15,1 13,1 - - 46 25 74 40 S 1000,3 9 0,4
12.10.2018 04:00:00 14,8 12,0 - - 42 23 72 39 S 1001,0 35 0,2
12.10.2018 03:00:00 14,7 11,8 - - 46 25 74 40 S 1001,5 16 0,4
12.10.2018 02:00:00 14,6 11,2 - - 34 18 59 32 SSE 1002,3 22 0,0
12.10.2018 01:00:00 13,9 10,7 - - 31 17 48 26 SSE 1002,9 40 0,0
12.10.2018 00:00:00 13,0 10,9 - - 18 10 - - SE 1003,6 35 0,0
11.10.2018 23:00:00 12,4 10,5 - - 16 9 - - SE 1003,6 30 0,0
11.10.2018 22:00:00 12,1 10,8 - - 13 7 - - SE 1003,9 35 0,0
11.10.2018 21:00:00 11,9 10,4 - - 15 8 - - SE 1003,6 45 0,0
11.10.2018 20:00:00 13,3 10,9 - - 18 10 - - SSE 1003,1 50 0,0
11.10.2018 19:00:00 12,8 10,1 - - 8 4 - - S 1002,7 50 0,0
11.10.2018 18:00:00 15,6 10,7 - - 0 0 - - N 1002,0 45 0,0
11.10.2018 17:00:00 15,4 10,3 - - 8 4 - - W 1001,7 26 0,0
11.10.2018 16:00:00 15,0 11,0 - - 11 6 - - W 1000,8 30 0,0
11.10.2018 15:00:00 14,4 12,5 - - 16 9 52 28 NW 999,7 15 0,2
11.10.2018 14:00:00 14,0 11,9 - - 34 18 50 27 SW 997,7 7 0,4
11.10.2018 13:00:00 15,5 14,1 - - 29 16 52 28 SE 996,8 35 0,2
11.10.2018 12:00:00 15,0 13,4 - - 35 19 50 27 ESE 997,0 24 0,4
11.10.2018 11:00:00 15,5 13,5 - - 26 14 - - SE 997,6 24 0,0
11.10.2018 10:00:00 15,8 13,0 14,7 15,0 24 13 - - S 998,7 45 0,0
11.10.2018 09:00:00 14,8 13,5 - - 22 12 - - SE 998,8 30 0,8
11.10.2018 08:00:00 14,1 12,8 - - 16 9 - - SE 998,5 22 0,0
11.10.2018 07:00:00 14,1 12,8 - - 18 10 - - SSE 998,1 18 0,0
11.10.2018 06:00:00 14,5 13,4 - - 24 13 - - ESE 997,7 17 0,0
11.10.2018 05:00:00 14,8 14,1 - - 28 15 - - SE 997,7 11 0,0
11.10.2018 04:00:00 13,8 13,1 - - 18 10 - - ESE 998,5 8 0,0

tt = Température de l'air
td = dewpoint
tt -20cm = Température de l'air -20cm
tt -100cm = Température de l'air -100cm
ff = Vitesse du vent
fx = gusts
dd = Direction du vent
ppp = reduced air pressure
vv = visibility
rr = Quantités de précipitations

stations d'obs. à proximité